Lamoni, IA

8:21 AM CST on February 10, 2016 (GMT -0600)
Lamoni Municipal

Weather History for KLWD - August, 2014

Change the Weather History Date:

Wednesday, August 13, 2014

  Actual Average Record
Temperature  
Mean Temperature 68 °F 74 °F  
Max Temperature 81 °F 84 °F 97 °F (1980)
Min Temperature 54 °F 65 °F 44 °F (1964)
Degree Days  
Heating Degree Days 0 0  
Month to date heating degree days 0 0  
Since 1 June heating degree days 12 21  
Since 1 July heating degree days 7 2  
Cooling Degree Days 3 10  
Month to date cooling degree days 92 130  
Year to date cooling degree days 623 693  
Since 1 June cooling degree days 511 639  
Growing Degree Days 18 (Base 50)    
Moisture  
Dew Point 56 °F    
Average Humidity 69    
Maximum Humidity 93    
Minimum Humidity 45    
Precipitation  
Precipitation 0.00 in 0.14 in 2.87 in (2005)
Month to date precipitation 3.57 1.74  
Sea Level Pressure  
Sea Level Pressure 30.10 in    
Wind  
Wind Speed 2 mph (NW)    
Max Wind Speed 8 mph    
Max Gust Speed 11 mph    
Visibility 10 miles    
Events      
T = Trace of Precipitation, MM = Missing Value Source: NWS Daily Summary

Daily Weather History Graph

Daily Weather History Graph

Search for Another Location

Airport or City:

Trip Planner

Search our weather history database for the weather conditions in past years. The results will help you decide how hot, cold, wet, or windy it might be!

Date:

Astronomy

Aug. 13, 2014 Rise Set
Actual Time 6:24 AM CDT 8:16 PM CDT
Civil Twilight 5:54 AM CDT 8:45 PM CDT
Nautical Twilight 5:18 AM CDT 9:21 PM CDT
Astronomical Twilight 4:39 AM CDT 9:59 PM CDT
Moon 10:00 PM CDT (8/13) 9:54 AM CDT (8/13)
Length of Visible Light 14h 50m
Length of Day
13h 51m
Waning Gibbous, 87% of the Moon is Illuminated
Aug 13
Waning Gibbous
Aug 17
Last Quarter
Aug 25
New
Sep 2
First Quarter
Sep 8
Full

Hourly Weather History & Observations

Time (CDT) Temp. Heat Index Dew Point Humidity Pressure Visibility Wind Dir Wind Speed Gust Speed Precip Events Conditions
12:53 AM 57.9 °F - 54.0 °F 87% 30.09 in 10.0 mi NW 5.8 mph - N/A   Clear
1:53 AM 57.9 °F - 53.1 °F 84% 30.09 in 10.0 mi NW 4.6 mph - N/A   Clear
2:53 AM 55.9 °F - 53.1 °F 90% 30.10 in 10.0 mi WNW 5.8 mph - N/A   Clear
3:53 AM 55.9 °F - 53.1 °F 90% 30.11 in 10.0 mi WNW 3.5 mph - N/A   Clear
4:53 AM 55.0 °F - 52.0 °F 89% 30.12 in 10.0 mi WNW 4.6 mph - N/A   Clear
5:53 AM 55.0 °F - 52.0 °F 89% 30.12 in 10.0 mi WNW 3.5 mph - N/A   Clear
6:02 AM 55.4 °F - 51.8 °F 88% 30.13 in 10.0 mi WNW 4.6 mph - N/A   Partly Cloudy
8:53 AM 69.1 °F - 57.9 °F 68% 30.14 in 10.0 mi NNE 3.5 mph - N/A   Clear
10:53 AM 75.0 °F - 55.9 °F 51% 30.15 in 10.0 mi Calm Calm - N/A   Clear
11:53 AM 75.0 °F - 55.9 °F 51% 30.14 in 10.0 mi West 5.8 mph - N/A   Clear
12:53 PM 75.9 °F - 55.0 °F 48% 30.14 in 10.0 mi Calm Calm - N/A   Clear
1:53 PM 77.0 °F - 55.9 °F 48% 30.12 in 10.0 mi Calm Calm - N/A   Clear
2:53 PM 79.0 °F - 57.0 °F 47% 30.11 in 10.0 mi NW 5.8 mph - N/A   Clear
3:53 PM 79.0 °F - 57.0 °F 47% 30.09 in 10.0 mi Calm Calm - N/A   Clear
4:53 PM 78.1 °F - 57.0 °F 48% 30.09 in 10.0 mi Variable 3.5 mph - N/A   Clear
5:53 PM 80.1 °F 80.4 °F 57.0 °F 45% 30.08 in 10.0 mi Calm Calm - N/A   Clear
6:53 PM 79.0 °F - 57.0 °F 47% 30.07 in 10.0 mi Calm Calm - N/A   Clear
7:53 PM 75.0 °F - 61.0 °F 62% 30.07 in 10.0 mi Calm Calm - N/A   Clear
8:53 PM 72.0 °F - 60.1 °F 66% 30.06 in 10.0 mi Calm Calm - N/A   Partly Cloudy
9:53 PM 68.0 °F - 62.1 °F 81% 30.08 in 10.0 mi Calm Calm - N/A   Clear
11:53 PM 64.0 °F - 57.9 °F 80% 30.08 in 10.0 mi Calm Calm - N/A   Clear